Location: Fredericksburg
(30.2750°N, 98.8720°W)
Time: 06:15:57
(UTC-06:00)

ISS - All Passes

Search period start: 24 November 2014 00:00
Search period end: 04 December 2014 00:00
Orbit: 408 x 417 km, 51.6° (Epoch: 24 November)

Date Brightness Start Highest point End Pass type
(mag) Time Alt. Az. Time Alt. Az. Time Alt. Az.
24 Nov - 00:06:16 10° SW 00:09:30 60° NW 00:12:45 10° NE night (unlit)
24 Nov - 06:41:03 10° NNE 06:41:58 11° NNE 06:42:54 10° NE visible
24 Nov - 08:15:39 10° NW 08:18:55 67° SW 08:22:11 10° SE daylight
24 Nov - 23:16:33 10° SSW 23:19:46 59° SE 23:23:00 10° NE night (unlit)
25 Nov - 00:55:25 10° WNW 00:56:40 12° NNW 00:57:56 10° N night (unlit)
25 Nov - 07:25:56 10° NW 07:29:10 53° NE 07:32:23 10° ESE daylight
25 Nov - 22:27:16 10° S 22:30:03 26° SE 22:32:52 10° ENE night (unlit)
26 Nov - 00:04:11 10° W 00:06:40 20° NW 00:09:10 10° NNE night (unlit)
26 Nov - 06:36:25 10° NNW 06:39:16 26° NE 06:42:07 10° E visible
26 Nov - 08:13:23 10° W 08:15:45 18° SW 08:18:06 10° S daylight
26 Nov - 21:38:48 10° SSE 21:40:21 13° SE 21:41:54 10° E night (unlit)
26 Nov - 23:13:38 10° WSW 23:16:42 36° NW 23:19:46 10° NNE night (unlit)
27 Nov - 05:47:13 10° N 05:49:15 15° NE 05:51:17 10° ENE visible
27 Nov - 07:22:54 10° WNW 07:26:00 38° SW 07:29:05 10° SSE daylight
27 Nov - 22:23:29 10° SW 22:26:46 80° NW 22:30:03 10° NE night (unlit)
28 Nov - 06:32:50 10° NW 06:36:08 90° SW 06:39:25 10° SE visible
28 Nov - 21:33:43 10° SSW 21:36:51 43° SE 21:40:00 10° ENE night (unlit)
28 Nov - 23:11:48 10° WNW 23:13:38 14° NW 23:15:28 10° N night (unlit)
29 Nov - 05:43:00 10° NNW 05:46:08 40° NE 05:49:16 10° ESE visible
29 Nov - 07:21:17 10° WSW 07:22:26 11° SW 07:23:36 10° SW daylight
29 Nov - 20:44:27 10° S 20:46:58 20° SE 20:49:28 10° ENE night (unlit)
29 Nov - 22:20:43 10° W 22:23:28 24° NW 22:26:13 10° NNE night (unlit)
30 Nov - 04:53:24 10° NNW 04:56:01 21° NE 04:58:37 10° E visible
30 Nov - 06:29:52 10° WNW 06:32:34 24° SW 06:35:16 10° S visible
30 Nov - 21:30:08 10° WSW 21:33:19 47° NW 21:36:31 10° NNE night (unlit)
01 Dec - 04:04:14 10° N 04:05:45 13° NE 04:07:17 10° ENE visible
01 Dec - 05:39:23 10° NW 05:42:36 52° SW 05:45:47 10° SSE visible
01 Dec - 20:39:56 10° SW 20:43:13 75° SE 20:46:29 10° NE night (unlit)
01 Dec - 22:19:50 10° NW 22:20:10 10° NNW 22:20:30 10° NNW night (unlit)
02 Dec - 04:49:14 10° NW 04:52:30 67° NE 04:55:45 10° SE visible
02 Dec - 19:50:09 10° SSW 19:53:07 32° SE 19:56:06 10° ENE visible
02 Dec - 21:27:31 10° W 21:29:47 17° NW 21:32:03 10° N night (unlit)
03 Dec - 03:59:18 10° NNW 04:02:16 31° NE 04:05:14 10° ESE night (unlit)
03 Dec - 05:36:40 10° W 05:38:39 15° SW 05:40:38 10° SSW visible
03 Dec - 19:01:01 10° SSE 19:03:03 15° SE 19:05:05 10° E visible
03 Dec - 20:36:29 10° WSW 20:39:26 31° NW 20:42:24 10° NNE visible
